{"data":{"norad_id":54067,"epoch":"2026-09-20T11:44:09.153312Z","epoch_age_seconds":87380,"freshness":"FRESH","line1":"1 54067U 22136S   26263.48899483 -.00000084  00000+0  85025-5 0  9995","line2":"2 54067  53.1593 177.6358 0001432  84.5161 275.6006 15.35395345216415","mean_motion":15.35395345,"eccentricity":0.0001432,"inclination_deg":53.1593,"raan_deg":177.6358,"arg_perigee_deg":84.5161,"mean_anomaly_deg":275.6006,"bstar":8.5025e-6,"rev_number":21641,"period_min":93.786919746067,"perigee_km":458.76727848981,"apogee_km":460.72564831373,"semimajor_km":6837.8834634018,"source":"CELESTRAK","updated_at":"2026-09-21T09:00:33.078626Z"}}